LAGEOS 1 (8820 NORAD) Tracking and Keplerian Element Data

This shows tracking and keplerian element data for the satellite.

Feedback or suggestion? Click here.




ElementValue
Catalog8820
NameLAGEOS 1
Epoch Orbit73094
Epoch Day230.80029076
Epoch Year2018
RAAN279.8759
Inclination109.8464
Eccentricity0.0044675
Argument of Perigee194.4306
Mean Anonmoly350.6366
Mean Motion6.3866488
Decay Rate2E-08
L11 08820U 76039A 18230.80029076 .00000002 00000-0 00000+0 0 9990
L22 08820 109.8464 279.8759 0044675 194.4306 350.6366 6.38664880730943

Live tracking and technical data element details for LAGEOS 1 (NORAD 8820). LAGEOS 1 can be tracked NOW for your location showing map with azimuth and elevation plus other details from your city location.

Track the satellite on the map from your city or location and see movement details for azimuth, elevation, latitude, longitude, range, height, and movement on the map or in text.







IsCatalogInMostPopularTable: catalog: 8820, numindb: 39
Update: records affected: 1



GetName: 8820 LAGEOS 1

Hit Count: updated at: Mon, 20 Aug 2018 00:44:44 GMT